Regional Weather Roundup
Issued by NWS Raleigh/Durham, NC

Home | Current Version | Previous Version | Text Only | Print | Product List | Glossary On
Versions: 1 2 3 4 5 6 7 8 9 10 11 12 13 14 15 16 17 18 19 20 21 22 23 24 25 26 27 28 29 30 31 32 33 34 35 36 37 38 39 40 41 42 43 44 45 46 47 48 49 50
357
ASUS42 KRAH 302210
RWRRAH
NORTH CAROLINA WEATHER ROUNDUP
NATIONAL WEATHER SERVICE RALEIGH NC
600 PM EDT SAT APR 30 2016

NOTE: "FAIR" INDICATES FEW OR NO CLOUDS BELOW 12,000 FEET WITH NO
SIGNIFICANT WEATHER AND/OR OBSTRUCTIONS TO VISIBILITY.

NCZ001-053-055-056-065-067-302300-
WESTERN NORTH CAROLINA

CITY           SKY/WX    TMP DP  RH WIND       PRES   REMARKS
ASHEVILLE      LGT RAIN  64  59  83 SE8       30.07R
JEFFERSON      FOG       54  53  99 E3        30.11S VSB<1/4
MORGANTON      CLOUDY    63  60  88 N3        30.12R
HICKORY        CLOUDY    62  60  93 NE8       30.06S
RUTHERFORDTON  CLOUDY    71  62  73 E5        30.04R
MOUNT AIRY     CLOUDY    60  57  91 E8        30.13R
BOONE          FOG       56  56 100 CALM      30.12R VSB 1/2
$$

NCZ021-022-025-041-071-084-088-302300-
CENTRAL NORTH CAROLINA

CITY           SKY/WX    TMP DP  RH WIND       PRES   REMARKS
CHARLOTTE      PTSUNNY   74  63  68 NE10      30.02S
GREENSBORO     DRIZZLE   61  59  94 E9        30.10R FOG
WINSTON-SALEM  CLOUDY    61  58  90 E6        30.11R
RALEIGH-DURHAM CLOUDY    63  57  81 E8        30.13R
FORT BRAGG     CLOUDY    68  60  75 E10       30.08S
FAYETTEVILLE   CLOUDY    71  62  73 E7        30.08S
BURLINGTON     CLOUDY    62  57  83 E6        30.11R
LAURINBURG     PTSUNNY   73  61  65 E15       30.06S
$$

NCZ011-015-027-028-043-044-047-080-103-302300-
NORTHEASTERN NORTH CAROLINA

CITY           SKY/WX    TMP DP  RH WIND       PRES   REMARKS
ROCKY MT-WILSO CLOUDY    61  56  83 NE5       30.15S
GREENVILLE     CLOUDY    63  55  77 E8        30.16S
WASHINGTON     CLOUDY    64  55  72 NE8       30.14F
ELIZABETH CITY PTSUNNY   61  51  70 E15       30.18R
MANTEO         NOT AVBL
CAPE HATTERAS  CLOUDY    59  54  83 NE9G23    30.14F
$$

NCZ078-087-090-091-093-098-101-302300-
SOUTHEASTERN NORTH CAROLINA

CITY           SKY/WX    TMP DP  RH WIND       PRES   REMARKS
LUMBERTON      CLOUDY    73  63  70 E8        30.06R
GOLDSBORO      CLOUDY    64  63  94 E13       30.11S
KINSTON        CLOUDY    64  57  77 E9        30.14S
KENANSVILLE    CLOUDY    67  57  71 E5        30.12S
NEW BERN       CLOUDY    65  55  70 E8        30.15R
CHERRY POINT   CLOUDY    64  57  78 E9        30.15R
BEAUFORT       CLOUDY    65  56  72 NE12      30.13R
JACKSONVILLE   CLOUDY    68  58  70 NE10      30.12R
WILMINGTON     CLOUDY    65  59  81 E7        30.11S
$$





USA.gov is the U.S. government's official web portal to all federal, state and local government web resources and services.